Terminal Aerodrome Forecast
Issued by NWS Billings, MT

Home | Current Version | Previous Version | Text Only | Print | Product List | Glossary Off
Versions: 1 2 3 4 5 6 7 8 9 10 11 12 13 14 15 16 17 18 19 20 21 22 23 24 25 26 27 28 29 30

000
FTUS45 KBYZ 202005 AAA
TAFMLS
TAF AMD
KMLS 202005Z 2020/2118 25015G25KT P6SM SCT250
     FM210300 02008KT P6SM SCT250
     FM211200 01008KT P6SM SCT080 BKN150=

USA.gov is the U.S. government's official web portal to all federal, state and local government web resources and services.